Volver al catálogo

ARIANE 5 R/B

ActivoGTO
NORAD 52906·ROCKET BODY·🇫🇷 France

Lanzado Jun 22, 2022 desde Guiana Space Centre

Loading…

TLE

EnvejeciendoSource: Space-Track

Época: Sep 14, 2026, 15:50 UTC

1 52906U 22067D   26257.65986530  .00005245  00000-0  17110-2 0  9991
2 52906   5.8250 119.7097 7167467  53.3533 353.1458  2.41969209 36378

Sigue ARIANE 5 R/B en tiempo real con AllMySat

Download on the App Store